DMSP 5D-2 F13 DEB, 40465

Orbit data source: Space-Track

DMSP 5D-2 F13 DEB, 40465 is space debris in SSO originally from a launch on Fri, 24 Mar 1995 UTC launched from the Air Force Western Test Range (AFWTR). Debris objects in space refer to the collection of defunct objects orbiting the Earth. Examples of debris include non-operational satellites, rocket bodies, and fragments generated from explosions, collisions, or faulty payload assembly.

Loading next visibility...
Identifier
40465, 1995-015BH
Orbit
SSO
Country
Flag of USUS
Related business
Manufacturer
Unknown
Mission
Spacecraft
Bus & Motor
Unknown
Mass
Unknown
Launch date (UTC)
1995-03-24 (31 years ago)
Launch vehicle
Unknown
Launch site
Air Force Western Test Range (AFWTR)
Object type
Payload
Rocket body
Debris
Shape & HBR
Unknown shape, 0.1 m
Radar Cross Section
Small (<0.1 m²)

Expand to show TLE details & history
Last TLE update: 2 days ago

TLE from 2 days ago
0 DMSP 5D-2 F13 DEB
1 40465U 95015BH  25348.27877990  .00004989  00000-0  21698-2 0  9998
2 40465  98.9740   7.4489 0039685 246.0189 113.6831 14.24102555553950
Epoch: 2025-12-14T06:41Z
TLE epoch observation values (Epoch: 2025-12-14T06:41:26.583Z)
Latitude
-0.00007°
Longitude
-176.10584°
Altitude
825.981 km
Speed
7.434 km/s
True Right ascension
00h 29m 47s
True Declination
0° 00' 00"
Sunlit
Object was in daylight at epoch
Visualization orbit readout
Latitude
Unknown
Longitude
Unknown
Altitude
Unknown
Speed
Unknown
Apparent Right ascension
Unknown
Apparent Declination
Unknown
Sunlit
N/A
Visualization observer readout
Local Sidereal Time
09:42:13
Azimuth
Unknown
Elevation
Unknown
Doppler factor
Unknown
Orbital elements
Apogee altitude
837.198 km
Perigee altitude
780.157 km
Semi-major axis
7,186.815 km
Eccentricity
0.00397
Inclination
98.974°
RAAN
7.4489°
Arg. of periapsis
246.0189°
True anomaly
114.09873°
Mean anomaly
113.6831°
Eccentric anomaly
113.891°
Mean motion
3.56237 °/min
Orbital period
101.06 mins
BSTAR
0.0021698
Loading maneuver chart data...
Computing Atmospheric mass density...

Documentation

Showing up to 5 results
|